Printer-friendly version

IAU Minor Planet Center

Minor Planet Center

MPEC 2005-S07 : COMET C/2005 N5 (CATALINA)

The following Minor Planet Electronic Circular may be linked-to from your own Web pages, but must not otherwise be redistributed electronically.


Read MPEC 2005-S06 Read MPEC 2005-S08


M.P.E.C. 2005-S07                                Issued 2005 Sept. 17, 00:32 UT

     The Minor Planet Electronic Circulars contain information on unusual
         minor planets and routine data on comets.  They are published
   on behalf of Commission 20 of the International Astronomical Union by the
          Minor Planet Center, Smithsonian Astrophysical Observatory,
                          Cambridge, MA 02138, U.S.A.

                  Supported in part by the Brinson Foundation
             Prepared using the Tamkin Foundation Computer Network

                              MPC@CFA.HARVARD.EDU
          URL http://cfa-www.harvard.edu/iau/mpc.html  ISSN 1523-6714

                          COMET C/2005 N5 (CATALINA)

Observations:
    CK05N050  C2005 09 04.07836 03 14 26.37 -04 52 12.4          17.6 N ES007157
    CK05N050  C2005 09 04.08218 03 14 26.92 -04 52 16.5          17.9 N ES007157
    CK05N050  C2005 09 07.72206 03 21 52.52 -06 00 45.2                 ES007349
    CK05N050  C2005 09 07.72435 03 21 52.81 -06 00 48.1                 ES007349
    CK05N050  C2005 09 07.72664 03 21 53.07 -06 00 50.7          16.9 T ES007349
    CK05N050  C2005 09 13.40432 03 32 25.18 -07 50 03.1          16.2 T ES007703
    CK05N050  C2005 09 13.41135 03 32 25.80 -07 50 11.6          16.4 T ES007703
    CK05N050  C2005 09 13.41841 03 32 26.52 -07 50 20.4          16.3 T ES007703
    CK05N050  C2005 09 13.42542 03 32 27.27 -07 50 27.3          16.4 T ES007703

Observer details:
157 Frasso Sabino.  Observers R. Haver, R. Gorelli.  Measurer R. Haver.
    0.20-m f/6.3 Schmidt-Cassegrain + CCD.
349 Ageo.  Observer K. Kadota.  0.25-m f/5.0 reflector + CCD.
703 Catalina Sky Survey.  Observer R. Hill.  Measurers E. C. Beshore,
    C. M. Casey, E. J. Christensen, G. J. Garradd, A. D. Grauer, R. E. Hill,
    S. M. Larson, R. H. McNaught.  0.68-m Schmidt + CCD.

Orbital elements:
    C/2005 N5 (Catalina)
Epoch 2005 Aug. 18.0 TT = JDT 2453600.5
T 2005 Aug. 22.68123 TT                                 MPC
q   1.6274058            (2000.0)            P               Q
n   0.00641341     Peri.  207.76465     +0.98451735     -0.09719509
a  28.6908547      Node   156.41190     +0.10741667     +0.99215876
e   0.9432779      Incl.   21.37903     -0.13851807     +0.07857553
P 153.68
Residuals in seconds of arc
050712 703  0.2+  0.1-    050804 130  0.2+  0.1+    050825 213  0.9+  0.5+
050712 703  0.1+  0.6+    050804 130  0.4+  0.3-    050825 213  0.6-  1.0+
050712 703  0.6-  0.3-    050804 130  0.2-  0.5-    050826 048 (0.0   2.5+)
050712 703  0.2+  1.2+    050805 D83  0.6+  0.2+    050826 048  1.7-  0.6+
050712 A50  0.3+  0.6-    050805 D83  0.1+  0.8+    050826 048  0.8+  1.2+
050712 A50  0.1+  0.5-    050805 D83  0.2-  0.5+    050826 048  0.5-  0.5-
050712 A50  0.9-  0.4-    050805 D83  0.1-  0.1-    050826 048  0.4-  0.5+
050712 A50  0.1-  0.1-    050806 213  0.3-  0.3+    050829 215  1.2+  0.6-
050712 A50  1.7-  0.1-    050806 157  0.5-  0.1+    050831 048  0.6+  0.5-
050713 J95  0.2+  0.1+    050806 157  1.0+  1.0-    050831 048  0.3+  0.1-
050713 J95  0.3+  0.2+    050806 213  0.6-  0.2+    050831 048  0.6-  0.6-
050713 J95  0.4-  0.3-    050806 213  0.8-  0.1-    050831 048  0.1-  0.1-
050713 H06  0.2+  0.1-    050807 J95  0.0   0.9+    050831 048  0.5+  0.4-
050713 H06  1.2-  0.9+    050807 J95  0.7+  0.6-    050901 349  0.0   0.2+
050713 H06 (1.0-  2.7+)   050807 J95  0.1+  0.2+    050901 349  0.3+  0.2+
050714 198  0.0   0.3+    050809 A79  0.9-  0.4+    050903 939  0.3+  0.8+
050714 198  0.0   0.3+    050809 A79  0.5+  0.1-    050903 939  0.4+  0.6+
050714 198  0.0   0.2+    050809 A79  0.2+  0.1+    050903 939  0.6+  0.3+
050714 198  0.1-  0.1+    050810 A79  1.4-  0.2+    050904 213  0.4-  0.5+
050714 198  0.3-  0.4-    050810 A79  0.8-  0.1+    050904 213  0.3+  0.1+
050714 J95  0.2+  0.2-    050810 A79  0.5-  0.3+    050904 213  0.1+  0.1+
050714 J95  0.4+  0.1-    050811 673  0.6-  0.0     050904 A01  0.6+  1.8+
050714 J95  0.3+  0.1-    050811 673  0.7-  0.3+    050904 A01  0.2-  0.3+
050714 734  1.0+  0.1-    050811 673  0.7-  0.1-    050904 157  0.1+  0.4-
050714 734  1.6+  0.6-    050811 673  0.5-  0.1-    050904 157  1.2+  0.2-
050714 734  0.1-  0.1-    050813 147  0.5-  0.0     050904 A79  0.2-  0.0
050714 734  1.0-  0.5-    050813 147  0.4+  0.5-    050904 A79  0.1+  0.2+
050714 673  0.2-  0.1+    050813 147  0.2-  0.3-    050904 A79  0.7-  0.3+
050714 673  1.8-  0.1-    050813 844  1.1-  0.4+    050904 232  0.8+  0.6-
050714 673  1.8-  0.2-    050813 844  0.1-  1.0+    050906 048  0.4+  1.2-
050714 673  0.4-  0.2-    050813 844  0.4-  0.5+    050906 048  0.8+  1.1-
050714 673  0.4-  0.3-    050813 844  0.1-  0.0     050906 048  1.0+  0.9-
050714 673  1.1-  0.5-    050817 673  0.4-  0.2-    050906 048  1.1+  0.5-
050715 J95  0.2-  0.8+    050817 673  0.4-  0.5+    050906 048  1.0+  1.1-
050715 J95  0.1+  0.4-    050817 673  0.1-  0.9+    050907 349  0.7-  0.2-
050715 J95  0.7+  0.3+    050817 673  0.1-  0.7+    050907 349  0.3-  0.5-
050716 J95  1.2+  0.9-    050817 E12  0.1-  0.3+    050907 349  0.4-  0.5-
050716 J95  0.2+  0.0     050817 E12  0.5+  0.3-    050908 673  0.0   0.0
050716 372  0.3-  0.7+    050817 E12  0.4-  0.3+    050908 673  0.2-  0.4-
050716 372  0.9-  1.0+    050819 349  0.1-  1.3-    050908 673  0.1+  0.4-
050718 J95  1.3-  0.4-    050819 349  0.1-  1.4-    050908 673  0.3-  0.1-
050718 J95  0.6-  0.4+    050819 349  0.4-  1.3-    050910 232  0.8+  1.6-
050721 J95  0.4+  0.6+    050820 349  1.4-  1.4-    050913 703  0.0   0.9+
050721 J95  0.1+  0.0     050820 349  1.6-  1.3-    050913 703  1.4-  0.6+
050721 J95  0.1+  0.2-    050821 232  0.4+  0.1+    050913 703  1.3-  0.0
050804 130  0.1-  0.0     050825 213  1.2+  0.7+    050913 703  0.7-  1.3+

Brian G. Marsden             (C) Copyright 2005 MPC           M.P.E.C. 2005-S07

Read MPEC 2005-S06 Read MPEC 2005-S08


Our Web policy. Index to the CBAT/MPC/ICQ pages.


Valid HTML 4.01!